Time,TemperatureF,DewpointF,PressureIn,WindDirection,WindDirectionDegrees,WindSpeedMPH,WindSpeedGustMPH,Humidity,HourlyPrecipIn,Conditions,Clouds,dailyrainin,SoftwareType,DateUTC
2013-07-21 00:01:00,68.4,64.7,29.84,West,270,0.0,0.0,88,0.00,,,0.00,WUHU216HW,2013-07-21 04:01:00,
2013-07-21 00:06:00,68.2,64.5,29.84,NNW,338,1.1,1.6,88,0.00,,,0.00,WUHU216HW,2013-07-21 04:06:00,
2013-07-21 00:11:00,67.9,64.2,29.84,NW,315,0.0,1.6,88,0.00,,,0.00,WUHU216HW,2013-07-21 04:11:00,
2013-07-21 00:16:00,67.7,64.0,29.84,NNW,338,0.0,1.1,88,0.00,,,0.00,WUHU216HW,2013-07-21 04:16:00,
2013-07-21 00:21:00,67.5,63.8,29.84,NNW,338,0.0,0.0,88,0.00,,,0.00,WUHU216HW,2013-07-21 04:21:00,
2013-07-21 00:26:00,67.3,63.6,29.84,NNW,338,0.0,0.0,88,0.00,,,0.00,WUHU216HW,2013-07-21 04:26:00,
2013-07-21 00:31:00,67.3,63.6,29.84,NNW,338,0.0,0.0,88,0.00,,,0.00,WUHU216HW,2013-07-21 04:31:00,
2013-07-21 00:36:00,67.1,63.5,29.84,NNW,338,0.0,0.0,88,0.00,,,0.00,WUHU216HW,2013-07-21 04:36:00,
2013-07-21 00:41:00,67.3,63.6,29.84,NNW,338,0.0,0.0,88,0.00,,,0.00,WUHU216HW,2013-07-21 04:41:00,
2013-07-21 00:46:00,67.3,63.9,29.85,NW,315,0.0,0.0,89,0.00,,,0.00,WUHU216HW,2013-07-21 04:46:00,
2013-07-21 00:51:00,67.1,63.7,29.85,NW,315,0.0,0.0,89,0.00,,,0.00,WUHU216HW,2013-07-21 04:51:00,
2013-07-21 00:56:00,67.1,63.7,29.84,North,0,0.0,0.0,89,0.00,,,0.00,WUHU216HW,2013-07-21 04:56:00,
2013-07-21 01:01:00,67.1,63.7,29.85,North,0,0.0,0.0,89,0.00,,,0.00,WUHU216HW,2013-07-21 05:01:00,
2013-07-21 01:06:00,67.1,63.7,29.85,South,180,0.0,0.4,89,0.00,,,0.00,WUHU216HW,2013-07-21 05:06:00,
2013-07-21 01:11:00,67.1,63.7,29.85,South,180,0.0,0.4,89,0.00,,,0.00,WUHU216HW,2013-07-21 05:11:00,
2013-07-21 01:16:00,67.1,64.1,29.85,South,180,0.0,0.0,90,0.00,,,0.00,WUHU216HW,2013-07-21 05:16:00,
2013-07-21 01:21:00,67.1,64.1,29.85,South,180,0.0,0.0,90,0.00,,,0.00,WUHU216HW,2013-07-21 05:21:00,
2013-07-21 01:26:00,67.1,64.1,29.85,South,180,0.0,0.0,90,0.00,,,0.00,WUHU216HW,2013-07-21 05:26:00,
2013-07-21 01:31:00,67.3,64.3,29.85,South,180,0.0,0.0,90,0.00,,,0.00,WUHU216HW,2013-07-21 05:31:00,
2013-07-21 01:36:00,67.3,64.3,29.85,South,180,0.0,0.0,90,0.00,,,0.00,WUHU216HW,2013-07-21 05:36:00,
2013-07-21 01:41:00,67.3,64.3,29.85,South,180,0.0,0.0,90,0.00,,,0.00,WUHU216HW,2013-07-21 05:41:00,
2013-07-21 01:46:00,67.3,64.3,29.85,South,180,0.0,0.0,90,0.00,,,0.00,WUHU216HW,2013-07-21 05:46:00,
2013-07-21 01:51:00,67.1,64.1,29.85,SSW,203,0.0,0.0,90,0.00,,,0.00,WUHU216HW,2013-07-21 05:51:00,
2013-07-21 01:56:00,67.0,63.9,29.85,NW,315,0.4,0.9,90,0.00,,,0.00,WUHU216HW,2013-07-21 05:56:00,
2013-07-21 02:01:00,66.8,63.7,29.85,NNW,338,0.0,0.9,90,0.00,,,0.00,WUHU216HW,2013-07-21 06:01:00,
2013-07-21 02:06:00,66.6,63.5,29.85,NNW,338,0.0,0.4,90,0.00,,,0.00,WUHU216HW,2013-07-21 06:06:00,
2013-07-21 02:11:00,66.6,63.5,29.85,NNW,338,0.0,0.0,90,0.00,,,0.00,WUHU216HW,2013-07-21 06:11:00,
2013-07-21 02:16:00,66.6,63.5,29.85,NNW,338,0.0,0.0,90,0.00,,,0.00,WUHU216HW,2013-07-21 06:16:00,
2013-07-21 02:21:00,66.6,63.5,29.85,NNW,338,0.0,0.7,90,0.00,,,0.00,WUHU216HW,2013-07-21 06:21:00,
2013-07-21 02:26:00,66.4,63.4,29.85,NNW,338,0.0,0.7,90,0.00,,,0.00,WUHU216HW,2013-07-21 06:26:00,
2013-07-21 02:31:00,66.6,63.5,29.85,NNW,338,0.0,0.0,90,0.00,,,0.00,WUHU216HW,2013-07-21 06:31:00,
2013-07-21 02:36:00,66.6,63.8,29.84,NNW,338,0.0,0.0,91,0.00,,,0.00,WUHU216HW,2013-07-21 06:36:00,
2013-07-21 02:41:00,66.6,63.8,29.85,NNW,338,0.0,0.0,91,0.00,,,0.00,WUHU216HW,2013-07-21 06:41:00,
2013-07-21 02:46:00,66.8,64.0,29.84,NNW,338,0.0,0.0,91,0.00,,,0.00,WUHU216HW,2013-07-21 06:46:00,
2013-07-21 02:51:00,66.8,64.0,29.84,SSW,203,0.0,0.7,91,0.00,,,0.00,WUHU216HW,2013-07-21 06:51:00,
2013-07-21 02:56:00,67.0,64.2,29.84,SW,225,0.0,0.7,91,0.00,,,0.00,WUHU216HW,2013-07-21 06:56:00,
2013-07-21 03:01:00,67.0,64.2,29.85,SW,225,0.0,0.7,91,0.00,,,0.00,WUHU216HW,2013-07-21 07:01:00,
2013-07-21 03:06:00,67.1,64.4,29.84,WSW,248,0.0,0.0,91,0.00,,,0.00,WUHU216HW,2013-07-21 07:06:00,
2013-07-21 03:11:00,67.1,64.4,29.85,West,270,0.7,1.1,91,0.00,,,0.00,WUHU216HW,2013-07-21 07:11:00,
2013-07-21 03:16:00,67.3,64.5,29.84,West,270,0.0,1.1,91,0.00,,,0.00,WUHU216HW,2013-07-21 07:16:00,
2013-07-21 03:21:00,67.3,64.5,29.85,West,270,0.0,0.7,91,0.00,,,0.00,WUHU216HW,2013-07-21 07:21:00,
2013-07-21 03:26:00,67.3,64.5,29.85,NW,315,0.7,0.7,91,0.00,,,0.00,WUHU216HW,2013-07-21 07:26:00,
2013-07-21 03:31:00,67.1,64.4,29.84,West,270,0.0,0.7,91,0.00,,,0.00,WUHU216HW,2013-07-21 07:31:00,
2013-07-21 03:36:00,67.1,64.4,29.84,West,270,0.0,0.7,91,0.00,,,0.00,WUHU216HW,2013-07-21 07:36:00,
2013-07-21 03:41:00,67.1,64.4,29.84,NW,315,0.4,0.9,91,0.00,,,0.00,WUHU216HW,2013-07-21 07:41:00,
2013-07-21 03:46:00,67.3,64.5,29.84,NW,315,0.4,1.1,91,0.00,,,0.00,WUHU216HW,2013-07-21 07:46:00,
2013-07-21 03:51:00,67.1,64.4,29.84,NW,315,0.4,1.1,91,0.00,,,0.00,WUHU216HW,2013-07-21 07:51:00,
2013-07-21 03:56:00,67.1,64.4,29.84,NNW,338,0.7,1.1,91,0.00,,,0.00,WUHU216HW,2013-07-21 07:56:00,
2013-07-21 04:01:00,67.0,64.2,29.84,NNW,338,0.0,1.1,91,0.00,,,0.00,WUHU216HW,2013-07-21 08:01:00,
2013-07-21 04:06:00,66.8,64.0,29.84,NNW,338,0.7,1.1,91,0.00,,,0.00,WUHU216HW,2013-07-21 08:06:00,
2013-07-21 04:11:00,66.8,64.0,29.84,West,270,0.0,1.1,91,0.00,,,0.00,WUHU216HW,2013-07-21 08:11:00,
2013-07-21 04:16:00,66.8,64.0,29.84,West,270,0.0,0.7,91,0.00,,,0.00,WUHU216HW,2013-07-21 08:16:00,
2013-07-21 04:21:00,66.8,64.0,29.84,West,270,0.0,0.0,91,0.00,,,0.00,WUHU216HW,2013-07-21 08:21:00,
2013-07-21 04:26:00,66.8,64.0,29.84,SSW,203,0.4,0.7,91,0.00,,,0.00,WUHU216HW,2013-07-21 08:26:00,
2013-07-21 04:31:00,66.8,64.0,29.84,WNW,293,0.0,0.7,91,0.00,,,0.00,WUHU216HW,2013-07-21 08:31:00,
2013-07-21 04:36:00,66.8,64.0,29.84,WNW,293,0.0,0.4,91,0.00,,,0.00,WUHU216HW,2013-07-21 08:36:00,
2013-07-21 04:41:00,66.8,64.0,29.84,West,270,0.0,1.1,91,0.00,,,0.00,WUHU216HW,2013-07-21 08:41:00,
2013-07-21 04:46:00,66.8,64.0,29.84,WSW,248,0.0,1.1,91,0.00,,,0.00,WUHU216HW,2013-07-21 08:46:00,
2013-07-21 04:51:00,66.8,64.0,29.84,WSW,248,0.4,0.7,91,0.00,,,0.00,WUHU216HW,2013-07-21 08:51:00,
2013-07-21 04:56:00,66.8,64.0,29.84,WSW,248,0.0,0.7,91,0.00,,,0.00,WUHU216HW,2013-07-21 08:56:00,
2013-07-21 05:01:00,66.8,64.0,29.84,WSW,248,0.0,0.4,91,0.00,,,0.00,WUHU216HW,2013-07-21 09:01:00,
2013-07-21 05:06:00,66.6,63.8,29.84,NNW,338,0.4,0.4,91,0.00,,,0.00,WUHU216HW,2013-07-21 09:06:00,
2013-07-21 05:11:00,66.6,63.8,29.84,WNW,293,0.0,0.4,91,0.00,,,0.00,WUHU216HW,2013-07-21 09:11:00,
2013-07-21 05:16:00,66.6,63.8,29.84,SW,225,0.0,0.4,91,0.00,,,0.00,WUHU216HW,2013-07-21 09:16:00,
2013-07-21 05:21:00,66.6,63.8,29.85,West,270,0.0,0.7,91,0.00,,,0.00,WUHU216HW,2013-07-21 09:21:00,
2013-07-21 05:26:00,66.6,63.8,29.85,NW,315,0.0,0.7,91,0.00,,,0.00,WUHU216HW,2013-07-21 09:26:00,
2013-07-21 05:31:00,66.6,63.8,29.85,NNW,338,0.0,0.0,91,0.00,,,0.00,WUHU216HW,2013-07-21 09:31:00,
2013-07-21 05:36:00,66.6,63.8,29.85,West,270,0.0,0.0,91,0.00,,,0.00,WUHU216HW,2013-07-21 09:36:00,
2013-07-21 05:41:00,66.6,63.8,29.85,West,270,0.0,0.0,91,0.00,,,0.00,WUHU216HW,2013-07-21 09:41:00,
2013-07-21 05:46:00,66.6,63.8,29.85,WSW,248,0.0,0.0,91,0.00,,,0.00,WUHU216HW,2013-07-21 09:46:00,
2013-07-21 05:51:00,66.6,63.8,29.85,NNW,338,0.9,0.9,91,0.00,,,0.00,WUHU216HW,2013-07-21 09:51:00,
2013-07-21 05:56:00,66.6,64.2,29.85,WNW,293,0.2,1.1,92,0.00,,,0.00,WUHU216HW,2013-07-21 09:56:00,
2013-07-21 06:01:00,66.6,64.2,29.85,West,270,0.0,1.1,92,0.00,,,0.00,WUHU216HW,2013-07-21 10:01:00,
2013-07-21 06:06:00,66.6,64.2,29.85,WNW,293,0.0,0.2,92,0.00,,,0.00,WUHU216HW,2013-07-21 10:06:00,
2013-07-21 06:11:00,66.4,64.0,29.85,WSW,248,0.4,1.1,92,0.00,,,0.00,WUHU216HW,2013-07-21 10:11:00,
2013-07-21 06:16:00,66.6,64.2,29.85,WSW,248,0.0,1.1,92,0.00,,,0.00,WUHU216HW,2013-07-21 10:16:00,
2013-07-21 06:21:00,66.6,64.2,29.85,WSW,248,0.0,0.2,92,0.00,,,0.00,WUHU216HW,2013-07-21 10:21:00,
2013-07-21 06:26:00,66.6,64.2,29.85,WSW,248,0.0,0.0,92,0.00,,,0.00,WUHU216HW,2013-07-21 10:26:00,
2013-07-21 06:31:00,66.4,64.0,29.85,WSW,248,0.0,0.0,92,0.00,,,0.00,WUHU216HW,2013-07-21 10:31:00,
2013-07-21 06:36:00,66.4,64.0,29.85,SW,225,0.0,0.0,92,0.00,,,0.00,WUHU216HW,2013-07-21 10:36:00,
2013-07-21 06:41:00,66.4,64.0,29.85,SW,225,0.0,1.1,92,0.00,,,0.00,WUHU216HW,2013-07-21 10:41:00,
2013-07-21 06:46:00,66.2,63.8,29.85,West,270,0.4,1.1,92,0.00,,,0.00,WUHU216HW,2013-07-21 10:46:00,
2013-07-21 06:51:00,66.2,63.8,29.85,NW,315,0.9,0.9,92,0.00,,,0.00,WUHU216HW,2013-07-21 10:51:00,
2013-07-21 06:56:00,66.2,63.8,29.85,NW,315,0.0,0.9,92,0.00,,,0.00,WUHU216HW,2013-07-21 10:56:00,
2013-07-21 07:01:00,66.2,63.8,29.85,NW,315,1.1,1.1,92,0.00,,,0.00,WUHU216HW,2013-07-21 11:01:00,
2013-07-21 07:06:00,66.2,63.8,29.85,NW,315,0.4,1.6,92,0.00,,,0.00,WUHU216HW,2013-07-21 11:06:00,
2013-07-21 07:11:00,66.2,64.1,29.86,NNW,338,1.1,1.6,93,0.00,,,0.00,WUHU216HW,2013-07-21 11:11:00,
2013-07-21 07:16:00,66.2,63.8,29.86,NW,315,0.0,1.3,92,0.00,,,0.00,WUHU216HW,2013-07-21 11:16:00,
2013-07-21 07:21:00,66.2,64.1,29.86,SW,225,0.0,1.1,93,0.00,,,0.00,WUHU216HW,2013-07-21 11:21:00,
2013-07-21 07:26:00,66.4,64.0,29.86,SW,225,0.0,0.7,92,0.00,,,0.00,WUHU216HW,2013-07-21 11:26:00,
2013-07-21 07:31:00,66.4,64.3,29.86,SSW,203,0.0,0.7,93,0.00,,,0.00,WUHU216HW,2013-07-21 11:31:00,
2013-07-21 07:36:00,66.4,64.3,29.86,SW,225,0.0,0.4,93,0.00,,,0.00,WUHU216HW,2013-07-21 11:36:00,
2013-07-21 07:41:00,66.4,64.3,29.86,WNW,293,0.0,0.7,93,0.00,,,0.00,WUHU216HW,2013-07-21 11:41:00,
2013-07-21 07:46:00,66.6,64.4,29.86,West,270,0.0,0.7,93,0.00,,,0.00,WUHU216HW,2013-07-21 11:46:00,
2013-07-21 07:51:00,66.6,64.4,29.86,WNW,293,0.4,0.7,93,0.00,,,0.00,WUHU216HW,2013-07-21 11:51:00,
2013-07-21 07:56:00,66.6,64.4,29.86,West,270,0.0,1.1,93,0.00,,,0.00,WUHU216HW,2013-07-21 11:56:00,
2013-07-21 08:01:00,66.6,64.4,29.86,SW,225,0.0,1.1,93,0.00,,,0.00,WUHU216HW,2013-07-21 12:01:00,
2013-07-21 08:06:00,66.6,64.4,29.86,WSW,248,0.0,1.1,93,0.00,,,0.00,WUHU216HW,2013-07-21 12:06:00,
2013-07-21 08:11:00,66.8,64.6,29.86,SW,225,0.4,1.1,93,0.00,,,0.00,WUHU216HW,2013-07-21 12:11:00,
2013-07-21 08:16:00,66.6,64.4,29.86,SW,225,0.0,0.7,93,0.00,,,0.00,WUHU216HW,2013-07-21 12:16:00,
2013-07-21 08:21:00,66.8,64.6,29.86,SSW,203,0.0,0.4,93,0.00,,,0.00,WUHU216HW,2013-07-21 12:21:00,
2013-07-21 08:26:00,66.8,64.6,29.86,SSW,203,0.4,0.9,93,0.00,,,0.00,WUHU216HW,2013-07-21 12:26:00,
2013-07-21 08:31:00,67.0,64.8,29.86,WSW,248,0.0,0.9,93,0.00,,,0.00,WUHU216HW,2013-07-21 12:31:00,
2013-07-21 08:36:00,67.1,65.0,29.86,West,270,0.4,0.9,93,0.00,,,0.00,WUHU216HW,2013-07-21 12:36:00,
2013-07-21 08:41:00,67.1,65.0,29.86,SW,225,0.9,1.1,93,0.00,,,0.00,WUHU216HW,2013-07-21 12:41:00,
2013-07-21 08:46:00,67.3,65.2,29.86,SSW,203,0.9,1.1,93,0.00,,,0.00,WUHU216HW,2013-07-21 12:46:00,
2013-07-21 08:51:00,67.5,65.3,29.86,SW,225,0.7,1.1,93,0.00,,,0.00,WUHU216HW,2013-07-21 12:51:00,
2013-07-21 08:56:00,67.7,65.3,29.86,SSW,203,0.0,0.9,92,0.00,,,0.00,WUHU216HW,2013-07-21 12:56:00,
2013-07-21 09:01:00,67.9,65.4,29.86,NNW,338,1.1,1.8,92,0.00,,,0.00,WUHU216HW,2013-07-21 13:01:00,
2013-07-21 09:06:00,68.0,65.6,29.86,NW,315,1.3,1.8,92,0.00,,,0.00,WUHU216HW,2013-07-21 13:06:00,
2013-07-21 09:11:00,68.2,65.8,29.86,WNW,293,1.1,1.8,92,0.00,,,0.00,WUHU216HW,2013-07-21 13:11:00,
2013-07-21 09:16:00,68.2,65.8,29.86,West,270,0.4,1.8,92,0.00,,,0.00,WUHU216HW,2013-07-21 13:16:00,
2013-07-21 09:21:00,68.0,65.3,29.86,NW,315,1.3,2.0,91,0.00,,,0.00,WUHU216HW,2013-07-21 13:21:00,
2013-07-21 09:26:00,68.0,65.6,29.86,WNW,293,1.1,2.0,92,0.00,,,0.00,WUHU216HW,2013-07-21 13:26:00,
2013-07-21 09:31:00,68.2,65.8,29.86,West,270,0.0,1.6,92,0.00,,,0.00,WUHU216HW,2013-07-21 13:31:00,
2013-07-21 09:36:00,68.4,66.0,29.86,NW,315,0.0,1.1,92,0.00,,,0.00,WUHU216HW,2013-07-21 13:36:00,
2013-07-21 09:41:00,68.8,66.3,29.86,NNW,338,0.7,1.1,92,0.00,,,0.00,WUHU216HW,2013-07-21 13:41:00,
2013-07-21 09:46:00,68.9,66.2,29.86,South,180,0.0,0.9,91,0.00,,,0.00,WUHU216HW,2013-07-21 13:46:00,
2013-07-21 09:51:00,69.1,66.3,29.86,SSW,203,1.3,1.3,91,0.00,,,0.00,WUHU216HW,2013-07-21 13:51:00,
2013-07-21 09:56:00,69.5,66.7,29.86,South,180,0.7,1.3,91,0.00,,,0.00,WUHU216HW,2013-07-21 13:56:00,
2013-07-21 10:01:00,69.8,67.1,29.86,South,180,0.0,1.3,91,0.00,,,0.00,WUHU216HW,2013-07-21 14:01:00,
2013-07-21 10:06:00,69.8,67.1,29.87,West,270,0.7,1.3,91,0.00,,,0.00,WUHU216HW,2013-07-21 14:06:00,
2013-07-21 10:11:00,70.2,67.4,29.86,WSW,248,0.7,1.3,91,0.00,,,0.00,WUHU216HW,2013-07-21 14:11:00,
2013-07-21 10:16:00,70.6,67.5,29.86,NW,315,1.1,1.1,90,0.00,,,0.00,WUHU216HW,2013-07-21 14:16:00,
2013-07-21 10:21:00,71.1,68.0,29.86,NNW,338,1.6,1.8,90,0.00,,,0.00,WUHU216HW,2013-07-21 14:21:00,
2013-07-21 10:26:00,71.6,68.6,29.86,NW,315,0.2,1.8,90,0.00,,,0.00,WUHU216HW,2013-07-21 14:26:00,
2013-07-21 10:31:00,72.0,68.9,29.86,WSW,248,0.9,1.8,90,0.00,,,0.00,WUHU216HW,2013-07-21 14:31:00,
2013-07-21 10:36:00,72.2,68.4,29.86,NW,315,1.1,2.5,88,0.00,,,0.00,WUHU216HW,2013-07-21 14:36:00,
2013-07-21 10:41:00,72.5,68.8,29.86,WSW,248,1.6,2.5,88,0.00,,,0.00,WUHU216HW,2013-07-21 14:41:00,
2013-07-21 10:46:00,73.3,69.8,29.85,WNW,293,1.1,2.5,89,0.00,,,0.00,WUHU216HW,2013-07-21 14:46:00,
2013-07-21 10:51:00,73.8,70.0,29.85,SSW,203,0.7,2.5,88,0.00,,,0.00,WUHU216HW,2013-07-21 14:51:00,
2013-07-21 10:56:00,74.2,70.1,29.85,South,180,1.1,2.9,87,0.00,,,0.00,WUHU216HW,2013-07-21 14:56:00,
2013-07-21 11:01:00,74.3,70.3,29.85,West,270,0.7,2.9,87,0.00,,,0.00,WUHU216HW,2013-07-21 15:01:00,
2013-07-21 11:06:00,74.3,70.3,29.86,SW,225,0.0,1.8,87,0.00,,,0.00,WUHU216HW,2013-07-21 15:06:00,
2013-07-21 11:11:00,74.5,70.1,29.86,WNW,293,1.1,2.0,86,0.00,,,0.00,WUHU216HW,2013-07-21 15:11:00,
2013-07-21 11:16:00,74.5,70.1,29.86,WSW,248,1.3,2.5,86,0.00,,,0.00,WUHU216HW,2013-07-21 15:16:00,
2013-07-21 11:21:00,74.7,70.3,29.86,WSW,248,0.4,2.5,86,0.00,,,0.00,WUHU216HW,2013-07-21 15:21:00,
2013-07-21 11:26:00,75.1,70.7,29.86,SW,225,0.0,1.8,86,0.00,,,0.00,WUHU216HW,2013-07-21 15:26:00,
2013-07-21 11:31:00,75.4,71.0,29.86,SW,225,0.7,1.1,86,0.00,,,0.00,WUHU216HW,2013-07-21 15:31:00,
2013-07-21 11:36:00,75.4,70.7,29.87,SW,225,1.1,1.8,85,0.00,,,0.00,WUHU216HW,2013-07-21 15:36:00,
2013-07-21 11:41:00,75.2,70.5,29.88,SSE,158,0.7,1.8,85,0.00,,,0.00,WUHU216HW,2013-07-21 15:41:00,
2013-07-21 11:46:00,74.7,69.9,29.88,SW,225,0.2,1.8,85,0.00,,,0.00,WUHU216HW,2013-07-21 15:46:00,
2013-07-21 11:51:00,74.3,69.6,29.89,SW,225,0.4,1.8,85,0.00,,,0.00,WUHU216HW,2013-07-21 15:51:00,
2013-07-21 11:56:00,74.0,69.6,29.89,NNW,338,0.7,1.1,86,0.00,,,0.00,WUHU216HW,2013-07-21 15:56:00,
2013-07-21 12:01:00,73.6,69.6,29.90,West,270,0.0,2.0,87,0.00,,,0.00,WUHU216HW,2013-07-21 16:01:00,
2013-07-21 12:06:00,73.1,69.3,29.91,WNW,293,3.6,3.6,88,0.01,,,0.00,WUHU216HW,2013-07-21 16:06:00,
2013-07-21 12:11:00,71.3,66.5,29.91,NNW,338,2.9,10.5,85,0.03,,,0.00,WUHU216HW,2013-07-21 16:11:00,
2013-07-21 12:16:00,69.5,65.1,29.91,WNW,293,0.9,10.5,86,0.05,,,0.00,WUHU216HW,2013-07-21 16:16:00,
2013-07-21 12:21:00,68.8,65.1,29.91,ESE,113,0.2,5.1,88,0.07,,,0.00,WUHU216HW,2013-07-21 16:21:00,
2013-07-21 12:26:00,68.4,65.3,29.91,SE,135,1.1,1.8,90,0.07,,,0.00,WUHU216HW,2013-07-21 16:26:00,
2013-07-21 12:31:00,68.4,65.0,29.91,ENE,68,0.9,1.6,89,0.07,,,0.00,WUHU216HW,2013-07-21 16:31:00,
2013-07-21 12:36:00,68.2,65.2,29.91,South,180,0.9,1.1,90,0.07,,,0.00,WUHU216HW,2013-07-21 16:36:00,
2013-07-21 12:41:00,68.4,65.3,29.91,SSW,203,0.4,2.5,90,0.08,,,0.00,WUHU216HW,2013-07-21 16:41:00,
2013-07-21 12:46:00,68.4,65.6,29.90,SSW,203,1.1,2.5,91,0.08,,,0.00,WUHU216HW,2013-07-21 16:46:00,
2013-07-21 12:51:00,68.4,65.6,29.90,WSW,248,0.4,2.5,91,0.08,,,0.00,WUHU216HW,2013-07-21 16:51:00,
2013-07-21 12:56:00,68.6,65.8,29.90,SE,135,0.7,2.5,91,0.08,,,0.00,WUHU216HW,2013-07-21 16:56:00,
2013-07-21 13:01:00,68.4,65.6,29.89,SW,225,1.3,3.4,91,0.07,,,0.00,WUHU216HW,2013-07-21 17:01:00,
2013-07-21 13:06:00,68.4,65.6,29.89,SSW,203,1.6,3.4,91,0.07,,,0.00,WUHU216HW,2013-07-21 17:06:00,
2013-07-21 13:11:00,68.6,65.8,29.89,South,180,1.3,3.1,91,0.04,,,0.00,WUHU216HW,2013-07-21 17:11:00,
2013-07-21 13:16:00,68.8,66.0,29.89,SSW,203,1.1,2.5,91,0.02,,,0.00,WUHU216HW,2013-07-21 17:16:00,
2013-07-21 13:21:00,68.9,66.5,29.89,South,180,0.4,2.5,92,0.01,,,0.00,WUHU216HW,2013-07-21 17:21:00,
2013-07-21 13:26:00,69.1,66.7,29.89,SSW,203,0.4,1.1,92,0.01,,,0.00,WUHU216HW,2013-07-21 17:26:00,
2013-07-21 13:31:00,69.3,66.5,29.89,SW,225,0.0,0.9,91,0.01,,,0.00,WUHU216HW,2013-07-21 17:31:00,
2013-07-21 13:36:00,69.5,67.1,29.88,SW,225,1.8,1.8,92,0.00,,,0.00,WUHU216HW,2013-07-21 17:36:00,
2013-07-21 13:41:00,69.3,66.9,29.88,SSE,158,0.0,1.8,92,0.00,,,0.00,WUHU216HW,2013-07-21 17:41:00,
2013-07-21 13:46:00,69.5,67.1,29.88,South,180,0.0,1.8,92,0.00,,,0.00,WUHU216HW,2013-07-21 17:46:00,
2013-07-21 13:51:00,69.8,67.4,29.87,SW,225,0.0,2.0,92,0.00,,,0.00,WUHU216HW,2013-07-21 17:51:00,
2013-07-21 13:56:00,70.2,67.8,29.87,WSW,248,0.0,2.0,92,0.00,,,0.00,WUHU216HW,2013-07-21 17:56:00,
2013-07-21 14:01:00,70.9,68.5,29.86,SE,135,0.4,1.6,92,0.00,,,0.00,WUHU216HW,2013-07-21 18:01:00,
2013-07-21 14:06:00,71.5,69.0,29.86,NNE,23,0.4,1.6,92,0.00,,,0.00,WUHU216HW,2013-07-21 18:06:00,
2013-07-21 14:11:00,71.6,69.2,29.86,SW,225,0.4,0.4,92,0.00,,,0.00,WUHU216HW,2013-07-21 18:11:00,
2013-07-21 14:16:00,71.8,69.4,29.86,SE,135,1.1,1.3,92,0.00,,,0.00,WUHU216HW,2013-07-21 18:16:00,
2013-07-21 14:21:00,71.6,68.9,29.86,SSE,158,0.2,1.3,91,0.00,,,0.00,WUHU216HW,2013-07-21 18:21:00,
2013-07-21 14:26:00,71.6,68.9,29.86,SSW,203,1.1,1.1,91,0.00,,,0.00,WUHU216HW,2013-07-21 18:26:00,
2013-07-21 14:31:00,72.0,69.2,29.86,WNW,293,0.0,1.6,91,0.00,,,0.00,WUHU216HW,2013-07-21 18:31:00,
2013-07-21 14:36:00,72.7,69.9,29.86,NE,45,0.4,1.6,91,0.00,,,0.00,WUHU216HW,2013-07-21 18:36:00,
2013-07-21 14:41:00,72.9,70.1,29.86,SE,135,0.0,1.1,91,0.00,,,0.00,WUHU216HW,2013-07-21 18:41:00,
2013-07-21 14:46:00,72.9,70.1,29.86,West,270,1.1,1.1,91,0.00,,,0.00,WUHU216HW,2013-07-21 18:46:00,
2013-07-21 14:51:00,72.7,69.7,29.85,SW,225,0.0,1.3,90,0.00,,,0.00,WUHU216HW,2013-07-21 18:51:00,
2013-07-21 14:56:00,72.5,69.5,29.85,South,180,1.1,1.3,90,0.00,,,0.00,WUHU216HW,2013-07-21 18:56:00,
2013-07-21 15:01:00,73.1,69.7,29.84,SSE,158,0.4,1.3,89,0.00,,,0.00,WUHU216HW,2013-07-21 19:01:00,
2013-07-21 15:06:00,73.1,69.7,29.84,ESE,113,0.0,1.3,89,0.00,,,0.00,WUHU216HW,2013-07-21 19:06:00,
2013-07-21 15:11:00,72.9,69.1,29.84,SE,135,0.0,0.9,88,0.00,,,0.00,WUHU216HW,2013-07-21 19:11:00,
2013-07-21 15:16:00,73.1,69.7,29.84,WSW,248,0.0,0.9,89,0.00,,,0.00,WUHU216HW,2013-07-21 19:16:00,
2013-07-21 15:21:00,73.1,69.7,29.83,WSW,248,0.0,0.9,89,0.00,,,0.00,WUHU216HW,2013-07-21 19:21:00,
2013-07-21 15:26:00,73.1,70.0,29.83,South,180,0.7,1.1,90,0.00,,,0.00,WUHU216HW,2013-07-21 19:26:00,
2013-07-21 15:31:00,73.1,69.7,29.83,SSW,203,0.0,1.8,89,0.00,,,0.00,WUHU216HW,2013-07-21 19:31:00,
2013-07-21 15:36:00,73.4,70.0,29.83,NNE,23,0.4,1.8,89,0.00,,,0.00,WUHU216HW,2013-07-21 19:36:00,
2013-07-21 15:41:00,73.8,70.7,29.83,West,270,0.2,1.1,90,0.00,,,0.00,WUHU216HW,2013-07-21 19:41:00,
2013-07-21 15:46:00,74.2,70.7,29.83,WSW,248,0.0,1.1,89,0.00,,,0.00,WUHU216HW,2013-07-21 19:46:00,
2013-07-21 15:51:00,74.2,70.7,29.83,ENE,68,0.0,0.4,89,0.00,,,0.00,WUHU216HW,2013-07-21 19:51:00,
2013-07-21 15:56:00,74.2,70.7,29.82,ESE,113,0.0,0.4,89,0.00,,,0.00,WUHU216HW,2013-07-21 19:56:00,
2013-07-21 16:01:00,74.3,70.9,29.82,WNW,293,1.6,1.6,89,0.00,,,0.00,WUHU216HW,2013-07-21 20:01:00,
2013-07-21 16:06:00,75.1,71.0,29.82,South,180,0.4,1.6,87,0.00,,,0.00,WUHU216HW,2013-07-21 20:06:00,
2013-07-21 16:11:00,76.0,71.8,29.82,East,90,0.4,1.6,87,0.00,,,0.00,WUHU216HW,2013-07-21 20:11:00,
2013-07-21 16:16:00,76.7,71.8,29.82,SW,225,1.3,1.8,85,0.00,,,0.00,WUHU216HW,2013-07-21 20:16:00,
2013-07-21 16:21:00,77.2,72.4,29.83,West,270,0.0,1.8,85,0.00,,,0.00,WUHU216HW,2013-07-21 20:21:00,
2013-07-21 16:22:00,77.2,72.4,29.82,West,270,0.0,1.8,85,0.00,,,0.00,WUHU216HW,2013-07-21 20:22:00,
2013-07-21 16:27:00,77.4,72.2,29.82,NW,315,0.0,1.8,84,0.00,,,0.00,WUHU216HW,2013-07-21 20:27:00,
2013-07-21 16:32:00,77.9,72.0,29.82,WSW,248,1.3,1.8,82,0.00,,,0.00,WUHU216HW,2013-07-21 20:32:00,
2013-07-21 16:37:00,78.3,71.6,29.82,ENE,68,0.0,1.8,80,0.00,,,0.00,WUHU216HW,2013-07-21 20:37:00,
2013-07-21 16:42:00,78.5,71.8,29.82,South,180,0.2,1.3,80,0.00,,,0.00,WUHU216HW,2013-07-21 20:42:00,
2013-07-21 16:47:00,78.1,71.5,29.82,NE,45,1.1,1.6,80,0.00,,,0.00,WUHU216HW,2013-07-21 20:47:00,
2013-07-21 16:52:00,78.1,71.8,29.81,East,90,0.2,1.6,81,0.00,,,0.00,WUHU216HW,2013-07-21 20:52:00,
2013-07-21 16:57:00,78.1,71.8,29.81,WSW,248,0.7,1.1,81,0.00,,,0.00,WUHU216HW,2013-07-21 20:57:00,
2013-07-21 17:02:00,77.9,70.9,29.81,West,270,0.7,2.7,79,0.00,,,0.00,WUHU216HW,2013-07-21 21:02:00,
2013-07-21 17:07:00,78.1,71.5,29.81,WSW,248,0.7,2.7,80,0.00,,,0.00,WUHU216HW,2013-07-21 21:07:00,
2013-07-21 17:12:00,77.9,71.3,29.82,WSW,248,0.0,1.3,80,0.00,,,0.00,WUHU216HW,2013-07-21 21:12:00,
2013-07-21 17:17:00,77.4,71.1,29.82,WSW,248,0.0,0.2,81,0.00,,,0.00,WUHU216HW,2013-07-21 21:17:00,
2013-07-21 17:22:00,76.9,70.6,29.82,WSW,248,0.0,0.0,81,0.00,,,0.00,WUHU216HW,2013-07-21 21:22:00,
2013-07-21 17:27:00,76.1,69.9,29.82,WSW,248,0.0,0.0,81,0.00,,,0.00,WUHU216HW,2013-07-21 21:27:00,
2013-07-21 17:32:00,75.6,70.1,29.82,WSW,248,0.0,0.0,83,0.00,,,0.00,WUHU216HW,2013-07-21 21:32:00,
2013-07-21 17:37:00,75.2,69.8,29.82,WSW,248,0.0,0.0,83,0.00,,,0.00,WUHU216HW,2013-07-21 21:37:00,
2013-07-21 17:42:00,75.1,69.6,29.82,West,270,0.2,0.2,83,0.00,,,0.00,WUHU216HW,2013-07-21 21:42:00,
2013-07-21 17:47:00,75.2,70.1,29.82,West,270,0.0,0.2,84,0.00,,,0.00,WUHU216HW,2013-07-21 21:47:00,
2013-07-21 17:53:00,75.2,70.1,29.82,West,270,0.0,0.2,84,0.00,,,0.00,WUHU216HW,2013-07-21 21:53:00,
2013-07-21 17:57:00,75.1,70.3,29.82,West,270,0.0,0.0,85,0.00,,,0.00,WUHU216HW,2013-07-21 21:57:00,
2013-07-21 18:02:00,74.9,70.1,29.82,West,270,0.0,0.0,85,0.00,,,0.00,WUHU216HW,2013-07-21 22:02:00,
2013-07-21 18:08:00,74.9,70.1,29.82,North,0,0.0,0.7,85,0.00,,,0.00,WUHU216HW,2013-07-21 22:08:00,
2013-07-21 18:13:00,74.9,70.5,29.82,North,0,0.0,0.7,86,0.00,,,0.00,WUHU216HW,2013-07-21 22:13:00,
2013-07-21 18:18:00,74.9,70.5,29.82,North,0,0.0,0.0,86,0.00,,,0.00,WUHU216HW,2013-07-21 22:18:00,
2013-07-21 18:23:00,74.7,70.3,29.82,North,0,0.0,0.0,86,0.00,,,0.00,WUHU216HW,2013-07-21 22:23:00,
2013-07-21 18:28:00,74.5,70.5,29.82,North,0,0.0,0.0,87,0.00,,,0.00,WUHU216HW,2013-07-21 22:28:00,
2013-07-21 18:33:00,74.5,70.5,29.81,NW,315,0.0,0.0,87,0.00,,,0.00,WUHU216HW,2013-07-21 22:33:00,
2013-07-21 18:38:00,74.5,70.5,29.81,NW,315,0.0,0.0,87,0.00,,,0.00,WUHU216HW,2013-07-21 22:38:00,
2013-07-21 18:43:00,74.5,70.5,29.81,NW,315,0.0,0.0,87,0.00,,,0.00,WUHU216HW,2013-07-21 22:43:00,
2013-07-21 18:48:00,74.3,70.3,29.82,NW,315,0.0,0.0,87,0.00,,,0.00,WUHU216HW,2013-07-21 22:48:00,
2013-07-21 18:53:00,74.3,70.3,29.82,NW,315,0.0,0.0,87,0.00,,,0.00,WUHU216HW,2013-07-21 22:53:00,
2013-07-21 18:58:00,74.2,70.4,29.82,NNW,338,0.0,0.0,88,0.00,,,0.00,WUHU216HW,2013-07-21 22:58:00,
2013-07-21 19:03:00,74.0,70.2,29.82,South,180,1.1,1.8,88,0.00,,,0.00,WUHU216HW,2013-07-21 23:03:00,
2013-07-21 19:08:00,74.0,70.2,29.82,SSW,203,0.4,1.8,88,0.00,,,0.00,WUHU216HW,2013-07-21 23:08:00,
2013-07-21 19:13:00,73.8,70.0,29.83,SSE,158,0.0,1.3,88,0.00,,,0.00,WUHU216HW,2013-07-21 23:13:00,
2013-07-21 19:18:00,73.6,69.6,29.83,SW,225,0.7,1.6,87,0.00,,,0.00,WUHU216HW,2013-07-21 23:18:00,
2013-07-21 19:23:00,73.4,69.4,29.83,SW,225,0.4,1.6,87,0.00,,,0.00,WUHU216HW,2013-07-21 23:23:00,
2013-07-21 19:28:00,73.1,69.0,29.83,NW,315,0.4,1.3,87,0.00,,,0.00,WUHU216HW,2013-07-21 23:28:00,
2013-07-21 19:33:00,72.5,67.8,29.83,SE,135,0.0,1.8,85,0.00,,,0.00,WUHU216HW,2013-07-21 23:33:00,
2013-07-21 19:38:00,72.2,67.4,29.83,NW,315,0.0,3.8,85,0.00,,,0.00,WUHU216HW,2013-07-21 23:38:00,
2013-07-21 19:43:00,71.8,67.4,29.82,NW,315,0.0,3.8,86,0.00,,,0.00,WUHU216HW,2013-07-21 23:43:00,
2013-07-21 19:48:00,71.6,67.2,29.83,NW,315,0.0,0.0,86,0.00,,,0.00,WUHU216HW,2013-07-21 23:48:00,
2013-07-21 19:53:00,71.5,67.4,29.82,NW,315,0.0,0.0,87,0.00,,,0.00,WUHU216HW,2013-07-21 23:53:00,
2013-07-21 19:58:00,71.3,67.2,29.82,NW,315,0.0,0.0,87,0.00,,,0.00,WUHU216HW,2013-07-21 23:58:00,
2013-07-21 20:03:00,71.3,67.5,29.82,NW,315,0.0,0.0,88,0.00,,,0.00,WUHU216HW,2013-07-22 00:03:00,
2013-07-21 20:08:00,70.9,67.1,29.83,NW,315,0.0,0.0,88,0.00,,,0.00,WUHU216HW,2013-07-22 00:08:00,
2013-07-21 20:13:00,70.9,67.1,29.83,NW,315,0.0,0.0,88,0.00,,,0.00,WUHU216HW,2013-07-22 00:13:00,
2013-07-21 20:18:00,70.7,67.0,29.84,NW,315,0.0,0.0,88,0.00,,,0.00,WUHU216HW,2013-07-22 00:18:00,
2013-07-21 20:23:00,70.6,66.8,29.84,NW,315,0.0,0.0,88,0.00,,,0.00,WUHU216HW,2013-07-22 00:23:00,
2013-07-21 20:28:00,70.7,67.0,29.84,West,270,0.0,0.0,88,0.00,,,0.00,WUHU216HW,2013-07-22 00:28:00,
2013-07-21 20:33:00,70.7,67.0,29.84,West,270,0.0,0.0,88,0.00,,,0.00,WUHU216HW,2013-07-22 00:33:00,
2013-07-21 20:38:00,70.7,67.0,29.84,NW,315,2.5,2.5,88,0.00,,,0.00,WUHU216HW,2013-07-22 00:38:00,
2013-07-21 20:43:00,70.7,67.0,29.84,NNW,338,0.7,2.5,88,0.00,,,0.00,WUHU216HW,2013-07-22 00:43:00,
2013-07-21 20:48:00,70.7,67.0,29.83,NNW,338,0.4,1.8,88,0.00,,,0.00,WUHU216HW,2013-07-22 00:48:00,
2013-07-21 20:53:00,70.6,66.8,29.84,NW,315,0.0,0.9,88,0.00,,,0.00,WUHU216HW,2013-07-22 00:53:00,
2013-07-21 20:58:00,70.6,66.8,29.84,NW,315,0.9,0.9,88,0.00,,,0.00,WUHU216HW,2013-07-22 00:58:00,
2013-07-21 21:03:00,70.6,66.8,29.84,NW,315,0.0,1.1,88,0.00,,,0.00,WUHU216HW,2013-07-22 01:03:00,
2013-07-21 21:08:00,70.4,66.6,29.84,NW,315,0.0,1.1,88,0.00,,,0.00,WUHU216HW,2013-07-22 01:08:00,
2013-07-21 21:13:00,70.2,66.4,29.84,NW,315,0.0,0.0,88,0.00,,,0.00,WUHU216HW,2013-07-22 01:13:00,
2013-07-21 21:18:00,70.2,66.8,29.84,NW,315,0.0,0.0,89,0.00,,,0.00,WUHU216HW,2013-07-22 01:18:00,
2013-07-21 21:23:00,70.0,66.6,29.84,NW,315,0.0,0.0,89,0.00,,,0.00,WUHU216HW,2013-07-22 01:23:00,
2013-07-21 21:28:00,70.0,66.6,29.84,NW,315,0.0,0.0,89,0.00,,,0.00,WUHU216HW,2013-07-22 01:28:00,
2013-07-21 21:33:00,69.8,66.4,29.84,NW,315,0.0,0.0,89,0.00,,,0.00,WUHU216HW,2013-07-22 01:33:00,
2013-07-21 21:38:00,69.8,66.4,29.84,NW,315,0.0,0.0,89,0.00,,,0.00,WUHU216HW,2013-07-22 01:38:00,
2013-07-21 21:43:00,69.8,66.8,29.85,NW,315,0.0,0.0,90,0.00,,,0.00,WUHU216HW,2013-07-22 01:43:00,
2013-07-21 21:48:00,69.8,66.8,29.85,NW,315,0.0,0.2,90,0.00,,,0.00,WUHU216HW,2013-07-22 01:48:00,
2013-07-21 21:53:00,69.8,66.8,29.85,NW,315,0.0,0.2,90,0.00,,,0.00,WUHU216HW,2013-07-22 01:53:00,
2013-07-21 21:58:00,69.8,66.8,29.85,NW,315,0.0,0.0,90,0.00,,,0.00,WUHU216HW,2013-07-22 01:58:00,
2013-07-21 22:03:00,69.8,66.8,29.85,West,270,0.0,0.2,90,0.00,,,0.00,WUHU216HW,2013-07-22 02:03:00,
2013-07-21 22:08:00,69.8,66.8,29.85,West,270,0.0,0.2,90,0.00,,,0.00,WUHU216HW,2013-07-22 02:08:00,
2013-07-21 22:13:00,69.8,66.8,29.85,West,270,0.0,0.0,90,0.00,,,0.00,WUHU216HW,2013-07-22 02:13:00,
2013-07-21 22:18:00,69.8,67.1,29.85,West,270,0.0,0.0,91,0.00,,,0.00,WUHU216HW,2013-07-22 02:18:00,
2013-07-21 22:23:00,69.8,67.1,29.85,West,270,0.0,0.0,91,0.00,,,0.00,WUHU216HW,2013-07-22 02:23:00,
2013-07-21 22:28:00,69.8,67.1,29.85,NNW,338,0.0,1.1,91,0.00,,,0.00,WUHU216HW,2013-07-22 02:28:00,
2013-07-21 22:33:00,69.8,67.1,29.85,NNW,338,0.0,1.1,91,0.00,,,0.00,WUHU216HW,2013-07-22 02:33:00,
2013-07-21 22:39:00,69.8,67.1,29.85,NNW,338,0.0,0.0,91,0.00,,,0.00,WUHU216HW,2013-07-22 02:39:00,
2013-07-21 22:44:00,69.7,66.9,29.86,NNW,338,0.0,0.0,91,0.00,,,0.00,WUHU216HW,2013-07-22 02:44:00,
2013-07-21 22:49:00,69.7,66.9,29.86,NNW,338,0.0,0.0,91,0.01,,,0.00,WUHU216HW,2013-07-22 02:49:00,
2013-07-21 22:54:00,69.5,66.7,29.86,NW,315,0.0,0.0,91,0.03,,,0.00,WUHU216HW,2013-07-22 02:54:00,
2013-07-21 22:59:00,69.5,66.7,29.86,WNW,293,0.0,0.0,91,0.03,,,0.00,WUHU216HW,2013-07-22 02:59:00,
2013-07-21 23:04:00,69.5,66.7,29.86,WNW,293,0.0,0.9,91,0.03,,,0.00,WUHU216HW,2013-07-22 03:04:00,
2013-07-21 23:09:00,69.5,66.7,29.86,NW,315,0.0,0.9,91,0.03,,,0.00,WUHU216HW,2013-07-22 03:09:00,
2013-07-21 23:14:00,69.5,66.7,29.86,NW,315,0.0,0.0,91,0.03,,,0.00,WUHU216HW,2013-07-22 03:14:00,
2013-07-21 23:19:00,69.3,66.5,29.86,NW,315,0.0,0.0,91,0.03,,,0.00,WUHU216HW,2013-07-22 03:19:00,
2013-07-21 23:24:00,69.3,66.5,29.86,NW,315,0.0,0.0,91,0.03,,,0.00,WUHU216HW,2013-07-22 03:24:00,
2013-07-21 23:29:00,69.3,66.9,29.86,NW,315,0.0,0.0,92,0.03,,,0.00,WUHU216HW,2013-07-22 03:29:00,
2013-07-21 23:34:00,69.1,66.7,29.86,NW,315,0.0,0.0,92,0.03,,,0.00,WUHU216HW,2013-07-22 03:34:00,
2013-07-21 23:39:00,69.1,66.7,29.86,NW,315,0.0,0.0,92,0.03,,,0.00,WUHU216HW,2013-07-22 03:39:00,
2013-07-21 23:44:00,69.1,66.7,29.86,NW,315,0.0,0.0,92,0.03,,,0.00,WUHU216HW,2013-07-22 03:44:00,
2013-07-21 23:49:00,69.1,66.7,29.86,NW,315,0.0,0.0,92,0.01,,,0.00,WUHU216HW,2013-07-22 03:49:00,
2013-07-21 23:54:00,69.1,66.7,29.86,NW,315,0.0,0.0,92,0.00,,,0.00,WUHU216HW,2013-07-22 03:54:00,
2013-07-21 23:59:00,69.1,66.7,29.86,NW,315,0.0,0.0,92,0.00,,,0.00,WUHU216HW,2013-07-22 03:59:00,